nws-alerts: Checking more than four warning/county codes can delay the loading of your pages. You should use a cron job to get the data.
EllijayWeather Station Historical Data
Daily Summary for July 12, 2019 Units:  English    Metric   Both
Daily Weekly Monthly Yearly Custom
  High: Low: Average:
Temperature: 82.8 °F 69.8 °F 74.9 °F
Dew Point: 77.7 °F 69.4 °F 73 °F
Humidity: 100% 76% 94%
Wind Speed: 2.9mph 0mph 0mph
Wind Gust: 5mph - -
Wind- - South
Pressure: 29.99 in 29.90 in -
Precipitation: 0.87 in    
Historical Graphs
 
 
Tabular Data for July 12, 2019
Time Temperature Dew Point Pressure Wind Wind Speed Wind Gust Humidity Rainfall Rate (Hourly) solar
00:04 70.5 °F 70.2 °F 29.93 in Calm     99% 0 in meteobridge W/m2
00:09 70.5 °F 70.2 °F 29.93 in Calm     99% 0 in meteobridge W/m2
00:14 70.5 °F 70.2 °F 29.93 in Calm     99% 0 in meteobridge W/m2
00:19 70.5 °F 70.2 °F 29.92 in Calm     99% 0 in meteobridge W/m2
00:24 70.5 °F 70.2 °F 29.92 in Calm     99% 0 in meteobridge W/m2
00:29 70.5 °F 70.2 °F 29.91 in Calm     99% 0 in meteobridge W/m2
00:34 70.5 °F 70 °F 29.91 in Calm     98% 0 in meteobridge W/m2
00:39 70.3 °F 69.8 °F 29.91 in Calm     98% 0 in meteobridge W/m2
00:44 70.3 °F 69.8 °F 29.91 in Calm     98% 0 in meteobridge W/m2
00:49 70.3 °F 70 °F 29.91 in Calm     99% 0 in meteobridge W/m2
00:54 70.3 °F 70 °F 29.91 in Calm     99% 0 in meteobridge W/m2
00:59 70.3 °F 70 °F 29.91 in Calm     99% 0 in meteobridge W/m2
01:04 70.3 °F 70 °F 29.91 in Calm     99% 0 in meteobridge W/m2
01:09 70.3 °F 70 °F 29.92 in Calm     99% 0 in meteobridge W/m2
01:14 70.2 °F 69.8 °F 29.92 in Calm     99% 0 in meteobridge W/m2
01:19 70.2 °F 69.6 °F 29.92 in Calm     98% 0 in meteobridge W/m2
01:24 70.2 °F 69.6 °F 29.92 in Calm     98% 0 in meteobridge W/m2
01:29 70 °F 69.4 °F 29.92 in Calm     98% 0 in meteobridge W/m2
01:34 70 °F 69.4 °F 29.92 in Calm     98% 0 in meteobridge W/m2
01:39 70 °F 69.4 °F 29.93 in Calm     98% 0 in meteobridge W/m2
01:44 70 °F 69.4 °F 29.93 in Calm     98% 0 in meteobridge W/m2
01:49 70 °F 69.6 °F 29.93 in Calm     99% 0 in meteobridge W/m2
01:54 69.8 °F 69.4 °F 29.93 in Calm     99% 0 in meteobridge W/m2
01:59 70 °F 69.6 °F 29.93 in Calm     99% 0 in meteobridge W/m2
02:03 69.8 °F 69.4 °F 29.93 in Calm     99% 0 in meteobridge W/m2
02:09 70 °F 69.6 °F 29.93 in Calm     99% 0 in meteobridge W/m2
02:14 70 °F 69.6 °F 29.93 in Calm     99% 0 in meteobridge W/m2
02:19 70 °F 69.6 °F 29.93 in Calm     99% 0 in meteobridge W/m2
02:24 70 °F 69.6 °F 29.93 in Calm     99% 0 in meteobridge W/m2
02:29 70 °F 69.6 °F 29.93 in Calm     99% 0 in meteobridge W/m2
02:34 70 °F 69.6 °F 29.92 in Calm     99% 0 in meteobridge W/m2
02:39 70.2 °F 69.8 °F 29.93 in Calm     99% 0 in meteobridge W/m2
02:44 70.2 °F 69.8 °F 29.93 in Calm     99% 0 in meteobridge W/m2
02:49 70.2 °F 69.8 °F 29.93 in Calm     99% 0 in meteobridge W/m2
02:53 70.2 °F 69.8 °F 29.93 in Calm     99% 0.01 in meteobridge W/m2
02:59 70.3 °F 70 °F 29.92 in Calm     99% 0.11 in meteobridge W/m2
03:04 70.3 °F 70 °F 29.92 in Calm     99% 0.23 in meteobridge W/m2
03:09 70.3 °F 70 °F 29.92 in Calm     99% 0.3 in meteobridge W/m2
03:14 70.3 °F 70 °F 29.92 in Calm     99% 0.33 in meteobridge W/m2
03:19 70.3 °F 70 °F 29.92 in Calm     99% 0.35 in meteobridge W/m2
03:24 70.3 °F 70 °F 29.92 in Calm     99% 0.35 in meteobridge W/m2
03:29 70.5 °F 70.2 °F 29.92 in Calm     99% 0.36 in meteobridge W/m2
03:34 70.5 °F 70.2 °F 29.92 in Calm     99% 0.38 in meteobridge W/m2
03:39 70.5 °F 70.2 °F 29.91 in Calm     99% 0.4 in meteobridge W/m2
03:44 70.5 °F 70.2 °F 29.91 in Calm     99% 0.41 in meteobridge W/m2
03:49 70.5 °F 70.2 °F 29.91 in Calm     99% 0.42 in meteobridge W/m2
03:54 70.5 °F 70.2 °F 29.91 in Calm     99% 0.39 in meteobridge W/m2
03:59 70.7 °F 70.3 °F 29.91 in Calm     99% 0.31 in meteobridge W/m2
04:04 70.7 °F 70.3 °F 29.91 in Calm     99% 0.19 in meteobridge W/m2
04:09 70.5 °F 70.2 °F 29.90 in Calm     99% 0.12 in meteobridge W/m2
04:14 70.5 °F 70.2 °F 29.90 in Calm     99% 0.09 in meteobridge W/m2
04:19 70.5 °F 70.2 °F 29.90 in Calm     99% 0.07 in meteobridge W/m2
04:24 70.5 °F 70.2 °F 29.91 in Calm     99% 0.06 in meteobridge W/m2
04:29 70.7 °F 70.3 °F 29.91 in Calm     99% 0.06 in meteobridge W/m2
04:34 70.7 °F 70.3 °F 29.91 in Calm     99% 0.04 in meteobridge W/m2
04:39 70.9 °F 70.5 °F 29.91 in Calm     99% 0.03 in meteobridge W/m2
04:44 70.7 °F 70.3 °F 29.91 in Calm     99% 0.02 in meteobridge W/m2
04:49 70.7 °F 70.3 °F 29.91 in Calm     99% 0.01 in meteobridge W/m2
04:54 70.7 °F 70.3 °F 29.91 in Calm     99% 0.01 in meteobridge W/m2
04:59 70.7 °F 70.3 °F 29.91 in Calm     99% 0.01 in meteobridge W/m2
05:04 70.7 °F 70.3 °F 29.91 in Calm     99% 0.01 in meteobridge W/m2
05:09 70.7 °F 70.3 °F 29.90 in Calm     99% 0.01 in meteobridge W/m2
05:14 70.7 °F 70.3 °F 29.90 in Calm     99% 0.01 in meteobridge W/m2
05:19 70.9 °F 70.5 °F 29.90 in Calm     99% 0.01 in meteobridge W/m2
05:24 70.7 °F 70.3 °F 29.90 in Calm     99% 0.01 in meteobridge W/m2
05:29 70.5 °F 70.2 °F 29.90 in Calm     99% 0.01 in meteobridge W/m2
05:34 70.5 °F 70.2 °F 29.90 in Calm     99% 0.01 in meteobridge W/m2
05:39 70.5 °F 70.2 °F 29.90 in Calm     99% 0 in meteobridge W/m2
05:44 70.5 °F 70.2 °F 29.90 in Calm     99% 0 in meteobridge W/m2
05:49 70.7 °F 70.3 °F 29.91 in Calm     99% 0.01 in meteobridge W/m2
05:54 70.7 °F 70.3 °F 29.91 in Calm     99% 0.01 in meteobridge W/m2
05:59 70.5 °F 70.2 °F 29.91 in Calm     99% 0.01 in meteobridge W/m2
06:04 70.7 °F 70.3 °F 29.91 in Calm     99% 0.01 in meteobridge W/m2
06:09 70.7 °F 70.3 °F 29.91 in Calm     99% 0.01 in meteobridge W/m2
06:14 70.7 °F 70.3 °F 29.91 in Calm     99% 0.01 in meteobridge W/m2
06:19 70.9 °F 70.5 °F 29.91 in Calm     99% 0.01 in meteobridge W/m2
06:24 70.7 °F 70.3 °F 29.91 in Calm     99% 0.01 in meteobridge W/m2
06:29 70.9 °F 70.5 °F 29.91 in Calm     99% 0.01 in meteobridge W/m2
06:34 70.7 °F 70.3 °F 29.92 in Calm     99% 0.01 in meteobridge W/m2
06:39 70.7 °F 70.3 °F 29.92 in Calm     99% 0.01 in meteobridge W/m2
06:44 70.9 °F 70.5 °F 29.92 in Calm     99% 0.01 in meteobridge W/m2
06:49 70.9 °F 70.5 °F 29.92 in Calm     99% 0 in meteobridge W/m2
06:54 71.1 °F 70.7 °F 29.92 in Calm     99% 0.01 in meteobridge W/m2
06:59 71.1 °F 70.7 °F 29.92 in Calm     99% 0.01 in meteobridge W/m2
07:04 71.1 °F 70.7 °F 29.93 in Calm     99% 0.01 in meteobridge W/m2
07:09 71.1 °F 70.7 °F 29.93 in Calm     99% 0.01 in meteobridge W/m2
07:14 71.1 °F 70.7 °F 29.93 in Calm     99% 0.01 in meteobridge W/m2
07:19 71.1 °F 70.7 °F 29.93 in Calm     99% 0.01 in meteobridge W/m2
07:24 71.1 °F 70.7 °F 29.93 in Calm     99% 0.01 in meteobridge W/m2
07:29 71.1 °F 70.7 °F 29.93 in Calm     99% 0.01 in meteobridge W/m2
07:34 71.1 °F 70.7 °F 29.93 in Calm     99% 0.01 in meteobridge W/m2
07:39 71.2 °F 70.9 °F 29.93 in Calm     99% 0.01 in meteobridge W/m2
07:44 71.2 °F 70.9 °F 29.93 in Calm     99% 0.01 in meteobridge W/m2
07:49 71.4 °F 71.1 °F 29.93 in Calm     99% 0.01 in meteobridge W/m2
07:54 71.4 °F 71.1 °F 29.93 in Calm     99% 0.01 in meteobridge W/m2
07:59 71.8 °F 71.8 °F 29.93 in Calm     100% 0.01 in meteobridge W/m2
08:04 72 °F 72 °F 29.94 in Calm     100% 0.01 in meteobridge W/m2
08:09 72.1 °F 72.1 °F 29.94 in Calm     100% 0.01 in meteobridge W/m2
08:14 72.3 °F 72.3 °F 29.94 in Calm     100% 0.01 in meteobridge W/m2
08:19 72.3 °F 72.3 °F 29.94 in Calm     100% 0.01 in meteobridge W/m2
08:24 72.5 °F 72.5 °F 29.94 in Calm     100% 0.01 in meteobridge W/m2
08:29 72.5 °F 72.5 °F 29.94 in Calm     100% 0.01 in meteobridge W/m2
08:34 72.7 °F 72.7 °F 29.94 in Calm     100% 0.02 in meteobridge W/m2
08:39 72.7 °F 72.7 °F 29.95 in Calm     100% 0.02 in meteobridge W/m2
08:44 72.7 °F 72.7 °F 29.95 in Calm   1 mph 100% 0.07 in meteobridge W/m2
08:49 72.7 °F 72.7 °F 29.95 in Calm     100% 0.13 in meteobridge W/m2
08:54 72.9 °F 72.5 °F 29.95 in Calm     99% 0.16 in meteobridge W/m2
08:59 72.9 °F 72.9 °F 29.95 in Calm     100% 0.21 in meteobridge W/m2
09:04 73 °F 73 °F 29.95 in Calm     100% 0.27 in meteobridge W/m2
09:09 73 °F 73 °F 29.96 in Calm     100% 0.32 in meteobridge W/m2
09:14 73 °F 73 °F 29.96 in Calm     100% 0.35 in meteobridge W/m2
09:19 73.2 °F 73.2 °F 29.96 in Calm     100% 0.38 in meteobridge W/m2
09:24 73.2 °F 73.2 °F 29.96 in Calm     100% 0.4 in meteobridge W/m2
09:29 73.2 °F 73.2 °F 29.96 in Calm     100% 0.4 in meteobridge W/m2
09:34 73.2 °F 72.9 °F 29.96 in Calm     99% 0.39 in meteobridge W/m2
09:39 73.2 °F 72.9 °F 29.96 in Calm     99% 0.39 in meteobridge W/m2
09:44 73.4 °F 73 °F 29.96 in Calm     99% 0.34 in meteobridge W/m2
09:49 73.2 °F 72.9 °F 29.96 in Calm     99% 0.28 in meteobridge W/m2
09:54 73.2 °F 72.9 °F 29.96 in Calm     99% 0.24 in meteobridge W/m2
09:59 73.4 °F 73 °F 29.96 in Calm     99% 0.17 in meteobridge W/m2
10:04 73.4 °F 73 °F 29.96 in Calm     99% 0.13 in meteobridge W/m2
10:09 73.6 °F 73.6 °F 29.96 in Calm     100% 0.09 in meteobridge W/m2
10:14 73.9 °F 73.9 °F 29.96 in Calm     100% 0.06 in meteobridge W/m2
10:19 74.1 °F 74.1 °F 29.96 in Calm     100% 0.03 in meteobridge W/m2
10:24 74.3 °F 74.3 °F 29.97 in Calm     100% 0.01 in meteobridge W/m2
10:29 74.3 °F 74.3 °F 29.96 in Calm     100% 0.01 in meteobridge W/m2
10:34 74.3 °F 74.3 °F 29.96 in NNE 0.9 mph 1 mph 100% 0.01 in meteobridge W/m2
10:39 74.5 °F 74.5 °F 29.96 in Calm     100% 0.01 in meteobridge W/m2
10:44 74.7 °F 74.7 °F 29.97 in Calm     100% 0.01 in meteobridge W/m2
10:49 74.8 °F 74.8 °F 29.97 in Calm   3 mph 100% 0.01 in meteobridge W/m2
10:54 74.8 °F 74.5 °F 29.97 in NNE 0.9 mph 1 mph 99% 0.01 in meteobridge W/m2
10:59 75 °F 74.7 °F 29.97 in Calm     99% 0.01 in meteobridge W/m2
11:04 75.4 °F 75 °F 29.97 in Calm     99% 0.01 in meteobridge W/m2
11:09 75.6 °F 75.2 °F 29.97 in Calm     99% 0 in meteobridge W/m2
11:14 75.6 °F 74.7 °F 29.98 in Calm     97% 0 in meteobridge W/m2
11:19 75.6 °F 75 °F 29.98 in Calm   1 mph 98% 0 in meteobridge W/m2
11:24 75.6 °F 74.7 °F 29.98 in Calm     97% 0 in meteobridge W/m2
11:29 75.6 °F 75 °F 29.97 in Calm   1 mph 98% 0 in meteobridge W/m2
11:34 75.6 °F 74.7 °F 29.98 in Calm   1 mph 97% 0 in meteobridge W/m2
11:39 75.4 °F 73.8 °F 29.98 in Calm     95% 0 in meteobridge W/m2
11:44 75.2 °F 74.3 °F 29.97 in Calm     97% 0 in meteobridge W/m2
11:49 75.4 °F 74.1 °F 29.97 in Calm   3 mph 96% 0 in meteobridge W/m2
11:54 75.6 °F 74.3 °F 29.97 in Calm     96% 0 in meteobridge W/m2
11:59 75.7 °F 75.2 °F 29.97 in Calm     98% 0 in meteobridge W/m2
12:04 75.9 °F 75 °F 29.97 in Calm     97% 0 in meteobridge W/m2
12:09 76.1 °F 75.2 °F 29.97 in Calm     97% 0 in meteobridge W/m2
12:14 76.5 °F 75.2 °F 29.97 in Calm     96% 0 in meteobridge W/m2
12:19 76.8 °F 75.9 °F 29.97 in Calm     97% 0 in meteobridge W/m2
12:24 77.5 °F 77 °F 29.97 in Calm   2 mph 98% 0 in meteobridge W/m2
12:29 78.3 °F 76.1 °F 29.97 in Calm   3 mph 93% 0 in meteobridge W/m2
12:34 78.6 °F 75.4 °F 29.97 in NW 0.9 mph 2 mph 90% 0 in meteobridge W/m2
12:39 79 °F 75.4 °F 29.97 in NNW 0.9 mph 1 mph 89% 0 in meteobridge W/m2
12:44 79.3 °F 76.8 °F 29.97 in Calm   5 mph 92% 0 in meteobridge W/m2
12:49 79.7 °F 75.6 °F 29.96 in Calm   3 mph 87% 0 in meteobridge W/m2
12:54 80.2 °F 75 °F 29.97 in Calm     84% 0 in meteobridge W/m2
12:59 80.4 °F 75.6 °F 29.97 in Calm   3 mph 85% 0 in meteobridge W/m2
13:04 80.4 °F 75.9 °F 29.96 in NW 0.9 mph 1 mph 86% 0 in meteobridge W/m2
13:09 80.2 °F 76.1 °F 29.96 in Calm   1 mph 87% 0 in meteobridge W/m2
13:14 80.2 °F 75.7 °F 29.96 in Calm     86% 0 in meteobridge W/m2
13:19 80.4 °F 75.9 °F 29.96 in Calm   4 mph 86% 0 in meteobridge W/m2
13:24 80.6 °F 75.4 °F 29.96 in Calm     84% 0 in meteobridge W/m2
13:29 81 °F 75.4 °F 29.96 in Calm     83% 0 in meteobridge W/m2
13:34 81.1 °F 76.8 °F 29.96 in Calm   3 mph 87% 0 in meteobridge W/m2
13:39 81.1 °F 74.7 °F 29.96 in Calm     81% 0 in meteobridge W/m2
13:44 81.1 °F 76.3 °F 29.96 in NNW 0.9 mph 2 mph 85% 0 in meteobridge W/m2
13:49 81.1 °F 75.6 °F 29.96 in ENE 2.9 mph 3 mph 83% 0 in meteobridge W/m2
13:54 81.1 °F 76.5 °F 29.96 in Calm     86% 0 in meteobridge W/m2
13:59 81.1 °F 76.3 °F 29.96 in Calm   3 mph 85% 0 in meteobridge W/m2
14:04 81 °F 76.1 °F 29.96 in Calm   1 mph 85% 0 in meteobridge W/m2
14:09 80.8 °F 77.2 °F 29.96 in Calm     89% 0 in meteobridge W/m2
14:14 80.6 °F 75.4 °F 29.95 in Calm     84% 0 in meteobridge W/m2
14:19 80.2 °F 75.7 °F 29.95 in Calm   2 mph 86% 0 in meteobridge W/m2
14:24 80.2 °F 77 °F 29.95 in Calm     90% 0 in meteobridge W/m2
14:29 80.4 °F 75.9 °F 29.94 in Calm   1 mph 86% 0 in meteobridge W/m2
14:34 81 °F 76.5 °F 29.94 in Calm     86% 0 in meteobridge W/m2
14:39 81.5 °F 75.9 °F 29.94 in Calm   3 mph 83% 0 in meteobridge W/m2
14:44 82 °F 77.4 °F 29.94 in Calm   1 mph 86% 0 in meteobridge W/m2
14:49 82.4 °F 75.2 °F 29.94 in Calm   4 mph 79% 0 in meteobridge W/m2
14:54 82.8 °F 74.5 °F 29.94 in Calm   1 mph 76% 0 in meteobridge W/m2
14:59 82.8 °F 75.6 °F 29.94 in Calm   1 mph 79% 0 in meteobridge W/m2
15:04 82.8 °F 76.6 °F 29.94 in Calm   1 mph 82% 0 in meteobridge W/m2
15:09 82.2 °F 76.5 °F 29.93 in Calm     83% 0 in meteobridge W/m2
15:14 81.9 °F 76.1 °F 29.93 in Calm     83% 0 in meteobridge W/m2
15:19 81.3 °F 76.6 °F 29.93 in Calm     86% 0 in meteobridge W/m2
15:24 81 °F 76.6 °F 29.93 in Calm     87% 0 in meteobridge W/m2
15:29 80.6 °F 76.6 °F 29.93 in Calm     88% 0 in meteobridge W/m2
15:34 80.4 °F 77.2 °F 29.93 in Calm     90% 0 in meteobridge W/m2
15:39 80.4 °F 76.8 °F 29.93 in Calm     89% 0 in meteobridge W/m2
15:44 80.2 °F 76.1 °F 29.93 in Calm     87% 0 in meteobridge W/m2
15:49 80.2 °F 77 °F 29.93 in Calm     90% 0 in meteobridge W/m2
15:54 80.2 °F 77 °F 29.93 in Calm     90% 0 in meteobridge W/m2
15:59 80.4 °F 77.2 °F 29.92 in Calm     90% 0 in meteobridge W/m2
16:04 80.4 °F 77.5 °F 29.92 in Calm     91% 0 in meteobridge W/m2
16:09 80.6 °F 77.7 °F 29.92 in Calm     91% 0 in meteobridge W/m2
16:14 81 °F 77 °F 29.93 in Calm     88% 0 in meteobridge W/m2
16:19 81.1 °F 76.3 °F 29.93 in Calm     85% 0 in meteobridge W/m2
16:24 81.5 °F 75.9 °F 29.93 in Calm   1 mph 83% 0 in meteobridge W/m2
16:29 82 °F 77.7 °F 29.93 in North 0.9 mph 1 mph 87% 0 in meteobridge W/m2
16:34 82.2 °F 76.1 °F 29.93 in Calm   2 mph 82% 0 in meteobridge W/m2
16:39 82.6 °F 77.5 °F 29.93 in Calm     85% 0 in meteobridge W/m2
16:44 82.8 °F 77 °F 29.93 in Calm   1 mph 83% 0 in meteobridge W/m2
16:49 82.8 °F 77 °F 29.92 in Calm     83% 0 in meteobridge W/m2
16:54 82.8 °F 77 °F 29.92 in Calm     83% 0 in meteobridge W/m2
16:59 82.8 °F 76.6 °F 29.92 in Calm     82% 0 in meteobridge W/m2
17:04 82.6 °F 76.5 °F 29.92 in Calm     82% 0 in meteobridge W/m2
17:09 82.6 °F 77.5 °F 29.92 in Calm     85% 0 in meteobridge W/m2
17:14 82.4 °F 77.4 °F 29.92 in Calm     85% 0 in meteobridge W/m2
17:19 82 °F 77.4 °F 29.92 in Calm     86% 0 in meteobridge W/m2
17:24 81.9 °F 77.2 °F 29.92 in Calm     86% 0 in meteobridge W/m2
17:29 81.7 °F 76.6 °F 29.92 in Calm     85% 0 in meteobridge W/m2
17:34 81.9 °F 76.5 °F 29.92 in Calm     84% 0 in meteobridge W/m2
17:39 81.9 °F 77.2 °F 29.92 in Calm     86% 0 in meteobridge W/m2
17:44 81.9 °F 76.1 °F 29.92 in Calm     83% 0 in meteobridge W/m2
17:49 82 °F 76.6 °F 29.91 in Calm     84% 0 in meteobridge W/m2
17:54 82 °F 77.4 °F 29.91 in Calm     86% 0 in meteobridge W/m2
17:59 81.9 °F 77.2 °F 29.91 in Calm     86% 0 in meteobridge W/m2
18:04 81.7 °F 76.3 °F 29.91 in Calm     84% 0 in meteobridge W/m2
18:09 81.7 °F 76.6 °F 29.91 in Calm     85% 0 in meteobridge W/m2
18:14 81.3 °F 76.1 °F 29.91 in Calm     84% 0 in meteobridge W/m2
18:19 81.3 °F 77 °F 29.91 in Calm     87% 0 in meteobridge W/m2
18:24 81.1 °F 76.8 °F 29.91 in Calm     87% 0 in meteobridge W/m2
18:29 81.1 °F 76.8 °F 29.92 in Calm     87% 0 in meteobridge W/m2
18:34 81 °F 77 °F 29.92 in Calm     88% 0 in meteobridge W/m2
18:39 81 °F 77.7 °F 29.91 in Calm     90% 0 in meteobridge W/m2
18:44 80.8 °F 77.2 °F 29.91 in Calm     89% 0 in meteobridge W/m2
18:49 80.4 °F 77.2 °F 29.92 in Calm     90% 0 in meteobridge W/m2
18:54 80.4 °F 77.5 °F 29.93 in East 2 mph 5 mph 91% 0 in meteobridge W/m2
18:59 79.5 °F 73.6 °F 29.93 in Calm     82% 0 in meteobridge W/m2
19:04 79.2 °F 73.6 °F 29.93 in Calm   2 mph 83% 0 in meteobridge W/m2
19:09 78.6 °F 73 °F 29.93 in Calm     83% 0 in meteobridge W/m2
19:14 78.3 °F 72.7 °F 29.94 in Calm     83% 0 in meteobridge W/m2
19:19 77.7 °F 72.9 °F 29.94 in Calm     85% 0 in meteobridge W/m2
19:24 77.4 °F 72.5 °F 29.94 in Calm     85% 0 in meteobridge W/m2
19:29 77.2 °F 72.7 °F 29.94 in Calm     86% 0 in meteobridge W/m2
19:34 77 °F 72.5 °F 29.94 in Calm     86% 0 in meteobridge W/m2
19:39 76.8 °F 72.3 °F 29.94 in Calm     86% 0 in meteobridge W/m2
19:44 76.6 °F 72.1 °F 29.94 in Calm     86% 0 in meteobridge W/m2
19:49 76.5 °F 72.7 °F 29.95 in Calm     88% 0 in meteobridge W/m2
19:54 76.5 °F 72.7 °F 29.95 in Calm     88% 0 in meteobridge W/m2
19:59 76.3 °F 72.9 °F 29.95 in Calm     89% 0 in meteobridge W/m2
20:04 76.1 °F 72.9 °F 29.94 in Calm     90% 0 in meteobridge W/m2
20:09 75.9 °F 73 °F 29.94 in Calm     91% 0 in meteobridge W/m2
20:14 75.9 °F 73 °F 29.95 in Calm     91% 0 in meteobridge W/m2
20:19 75.7 °F 72.9 °F 29.95 in Calm     91% 0 in meteobridge W/m2
20:24 75.6 °F 73 °F 29.95 in Calm     92% 0 in meteobridge W/m2
20:29 75.4 °F 72.9 °F 29.95 in Calm     92% 0 in meteobridge W/m2
20:34 75.4 °F 72.9 °F 29.94 in Calm     92% 0 in meteobridge W/m2
20:39 75.4 °F 72.9 °F 29.94 in Calm     92% 0 in meteobridge W/m2
20:44 75 °F 72.9 °F 29.95 in Calm     93% 0 in meteobridge W/m2
20:49 75 °F 72.9 °F 29.95 in Calm     93% 0 in meteobridge W/m2
20:54 74.8 °F 72.7 °F 29.95 in Calm     93% 0 in meteobridge W/m2
20:59 74.8 °F 73 °F 29.95 in Calm     94% 0 in meteobridge W/m2
21:04 74.7 °F 72.9 °F 29.95 in Calm     94% 0 in meteobridge W/m2
21:09 74.7 °F 72.9 °F 29.95 in Calm     94% 0 in meteobridge W/m2
21:14 74.5 °F 72.7 °F 29.95 in Calm     94% 0 in meteobridge W/m2
21:19 74.5 °F 72.7 °F 29.96 in Calm     94% 0 in meteobridge W/m2
21:24 74.1 °F 72.7 °F 29.96 in Calm     95% 0 in meteobridge W/m2
21:29 74.1 °F 72.7 °F 29.96 in Calm     95% 0 in meteobridge W/m2
21:34 74.1 °F 72.7 °F 29.96 in Calm     95% 0 in meteobridge W/m2
21:39 73.9 °F 72.5 °F 29.96 in Calm     95% 0 in meteobridge W/m2
21:44 73.9 °F 72.5 °F 29.97 in Calm     95% 0 in meteobridge W/m2
21:49 73.9 °F 72.7 °F 29.97 in Calm     96% 0 in meteobridge W/m2
21:54 73.8 °F 72.5 °F 29.97 in Calm     96% 0 in meteobridge W/m2
21:59 73.8 °F 72.5 °F 29.97 in Calm     96% 0 in meteobridge W/m2
22:04 73.8 °F 72.5 °F 29.97 in Calm     96% 0 in meteobridge W/m2
22:09 73.6 °F 72.3 °F 29.97 in Calm     96% 0 in meteobridge W/m2
22:14 73.6 °F 72.3 °F 29.97 in Calm     96% 0 in meteobridge W/m2
22:19 73.6 °F 72.3 °F 29.98 in Calm     96% 0 in meteobridge W/m2
22:24 73.6 °F 72.3 °F 29.98 in Calm     96% 0 in meteobridge W/m2
22:28 73.4 °F 72.1 °F 29.98 in Calm     96% 0 in meteobridge W/m2
22:34 73.2 °F 72 °F 29.98 in Calm     96% 0 in meteobridge W/m2
22:39 73 °F 71.8 °F 29.98 in Calm     96% 0 in meteobridge W/m2
22:44 73 °F 71.8 °F 29.98 in Calm     96% 0 in meteobridge W/m2
22:49 73 °F 71.8 °F 29.98 in Calm     96% 0 in meteobridge W/m2
22:54 72.9 °F 71.6 °F 29.98 in Calm     96% 0 in meteobridge W/m2
22:59 72.9 °F 71.6 °F 29.98 in Calm     96% 0 in meteobridge W/m2
23:04 72.7 °F 71.4 °F 29.98 in Calm     96% 0 in meteobridge W/m2
23:09 72.5 °F 71.2 °F 29.98 in Calm     96% 0 in meteobridge W/m2
23:14 72.5 °F 71.6 °F 29.98 in Calm     97% 0 in meteobridge W/m2
23:19 72.3 °F 71.4 °F 29.99 in Calm     97% 0 in meteobridge W/m2
23:24 72.3 °F 71.4 °F 29.98 in Calm     97% 0 in meteobridge W/m2
23:29 72.3 °F 71.4 °F 29.99 in Calm     97% 0 in meteobridge W/m2
23:34 72.3 °F 71.4 °F 29.99 in Calm     97% 0 in meteobridge W/m2
23:39 72.3 °F 71.4 °F 29.99 in Calm     97% 0 in meteobridge W/m2
23:44 72.3 °F 71.4 °F 29.99 in Calm     97% 0 in meteobridge W/m2
23:49 72.3 °F 71.4 °F 29.99 in Calm     97% 0 in meteobridge W/m2
23:54 72.3 °F 71.4 °F 29.99 in Calm     97% 0 in meteobridge W/m2
23:59 72.1 °F 71.2 °F 29.99 in Calm     97% 0 in meteobridge W/m2
EllijayWeather
Compliments of Weather Underground - 2.5 mb